TimeCDT,TemperatureF,Dew PointF,Humidity,Sea Level PressureIn,VisibilityMPH,Wind Direction,Wind SpeedMPH,Gust SpeedMPH,PrecipitationIn,Events,Conditions,WindDirDegrees,DateUTC
12:32 AM,33.8,24.8,70,30.08,2.5,NE,13.8,-,0.00,Snow,Light Snow,40,2013-04-16 05:32:00
12:53 AM,30.9,27.0,85,30.18,1.5,ENE,6.9,-,0.00,Snow,Light Snow,60,2013-04-16 05:53:00
12:58 AM,30.2,26.6,86,30.10,1.2,NE,8.1,-,0.00,Snow,Light Snow,50,2013-04-16 05:58:00
1:16 AM,30.2,26.6,86,30.11,0.8,NE,5.8,-,0.01,Snow,Light Snow,50,2013-04-16 06:16:00
1:23 AM,30.2,28.4,93,30.11,0.8,NE,5.8,-,0.02,Snow,Light Snow,40,2013-04-16 06:23:00
1:53 AM,30.0,28.0,92,30.18,0.8,NE,3.5,-,0.06,Snow,Light Snow,40,2013-04-16 06:53:00
2:17 AM,30.2,28.4,93,30.13,1.0,NE,3.5,-,0.02,Snow,Light Snow,40,2013-04-16 07:17:00
2:26 AM,30.2,28.4,93,30.13,1.0,NE,4.6,-,0.03,Snow,Light Snow,40,2013-04-16 07:26:00
2:53 AM,28.9,27.0,92,30.18,1.0,ENE,3.5,-,0.05,Snow,Light Snow,60,2013-04-16 07:53:00
3:10 AM,28.4,28.4,100,30.13,0.8,Calm,Calm,-,0.01,Snow,Light Snow,0,2013-04-16 08:10:00
3:37 AM,28.4,26.6,93,30.12,1.0,Calm,Calm,-,0.03,Snow,Light Snow,0,2013-04-16 08:37:00
3:53 AM,28.9,27.0,92,30.17,1.2,Calm,Calm,-,0.04,Snow,Light Snow,0,2013-04-16 08:53:00
4:01 AM,28.4,26.6,93,30.12,1.8,North,3.5,-,0.00,Snow,Light Snow,10,2013-04-16 09:01:00
4:13 AM,28.4,26.6,93,30.12,2.0,NNW,3.5,-,0.00,Snow,Light Snow,340,2013-04-16 09:13:00
4:27 AM,28.4,26.6,93,30.12,1.5,NNW,3.5,-,0.01,Snow,Light Snow,330,2013-04-16 09:27:00
4:37 AM,28.4,26.6,93,30.12,1.2,NNW,3.5,-,0.01,Snow,Light Snow,340,2013-04-16 09:37:00
4:53 AM,28.9,27.0,92,30.16,1.8,North,3.5,-,0.02,Snow,Light Snow,350,2013-04-16 09:53:00
5:25 AM,28.4,26.6,93,30.11,2.5,North,5.8,-,0.01,Snow,Light Snow,360,2013-04-16 10:25:00
5:28 AM,28.4,26.6,93,30.11,3.0,North,5.8,-,0.01,Snow,Light Snow,10,2013-04-16 10:28:00
5:53 AM,28.9,27.0,92,30.15,7.0,NNE,5.8,-,0.01,Snow,Light Snow,20,2013-04-16 10:53:00
6:53 AM,30.2,26.6,86,30.11,10.0,NE,3.5,-,N/A,,Overcast,50,2013-04-16 11:53:00
7:53 AM,30.0,27.0,88,30.19,10.0,Calm,Calm,-,N/A,,Overcast,0,2013-04-16 12:53:00
8:53 AM,30.0,27.0,88,30.22,10.0,SE,3.5,-,0.00,,Overcast,130,2013-04-16 13:53:00
9:53 AM,30.9,28.0,89,30.22,10.0,ESE,5.8,-,N/A,,Overcast,110,2013-04-16 14:53:00
10:18 AM,30.2,28.4,93,30.16,10.0,ESE,5.8,-,N/A,,Overcast,110,2013-04-16 15:18:00
10:53 AM,32.0,28.0,85,30.23,10.0,ESE,5.8,-,N/A,,Overcast,120,2013-04-16 15:53:00
11:53 AM,34.0,28.0,79,30.23,10.0,East,8.1,-,N/A,,Overcast,100,2013-04-16 16:53:00
12:19 PM,35.6,28.4,75,30.17,10.0,ESE,8.1,-,N/A,,Overcast,110,2013-04-16 17:19:00
12:53 PM,36.0,28.9,76,30.22,10.0,ESE,10.4,-,N/A,,Overcast,120,2013-04-16 17:53:00
1:53 PM,37.0,30.0,76,30.19,10.0,East,11.5,-,N/A,,Overcast,80,2013-04-16 18:53:00
2:53 PM,37.9,30.0,73,30.16,10.0,East,13.8,-,N/A,,Overcast,100,2013-04-16 19:53:00
3:53 PM,39.9,28.9,65,30.13,10.0,ESE,15.0,23.0,N/A,,Overcast,110,2013-04-16 20:53:00
4:53 PM,41.0,28.0,60,30.11,10.0,East,17.3,-,N/A,,Overcast,100,2013-04-16 21:53:00
5:53 PM,41.0,27.0,57,30.09,10.0,East,20.7,-,N/A,,Overcast,100,2013-04-16 22:53:00
6:53 PM,41.0,26.1,55,30.09,10.0,East,18.4,-,N/A,,Overcast,100,2013-04-16 23:53:00
7:53 PM,39.9,26.1,58,30.11,10.0,East,19.6,24.2,N/A,,Overcast,90,2013-04-17 00:53:00
8:53 PM,39.0,27.0,62,30.13,10.0,East,10.4,-,N/A,,Overcast,90,2013-04-17 01:53:00
9:53 PM,39.9,27.0,60,30.16,10.0,East,20.7,26.5,N/A,,Overcast,90,2013-04-17 02:53:00
10:53 PM,39.0,28.0,65,30.17,10.0,East,17.3,-,N/A,,Overcast,80,2013-04-17 03:53:00
11:51 PM,37.4,28.4,70,30.12,10.0,East,13.8,-,N/A,,Overcast,90,2013-04-17 04:51:00
11:53 PM,37.9,28.9,70,30.18,10.0,East,16.1,-,N/A,,Overcast,90,2013-04-17 04:53:00